Content
SEND FEEDBACK

Daily
Averages
Monthly
Summary
United States of America

CRESTED BUTTE, COLORADO


Home > North America > United States > Colorado
Elevation: 9277 feet     Latitude: 38 52N     Longitude: 106 58W

WEATHER
 
SELECT A DAY
Number of Records: 458,614;   Date Range: 1/1/95 - 12/17/14
 
SHARE

PRINT THIS DATA

[ ← Previous Day ]
WEATHER ALMANAC - JULY 2, 2014
[ Next Day → ]
[ °C ]   °F
Weather ElementAverageHighLow
Temperature46.2 °F80.6 °F (2:35 pm) (3:15 pm)
Dewpoint27 °F42.8 °F (10:15 am) (7:00 pm)
Humidity43.4 %66 % (5:35 am)15 % (7:15 pm)
Barometer30.36 in30.41 in (8:15 am)30.26 in (6:15 pm)
Wind Speed4.9 mph10.4 mph (1:15 am)
Wind Gust18.4 mph (1:55 pm)
Weather ElementAverage
Visibility9.9 mi
Wind DirectionENE (82.7 °)

Weather ElementTotal
Precipitation---
Heating Degree Days24.7 (Base 65)
Averaged from 56 records on July 2, 2014
WEATHER CONDITIONS BREAKOUT
WIND DIRECTION BREAKOUT
WEATHER BY HOUR - JULY 2, 2014
[ °C ]   °F
Local TimeTemperatureDewpointHumidityBarometerVisibilityWind DirectionWind SpeedGust SpeedPrecipitationEventsConditions
12:35 AM57.2 °F39.2 °F51 %30.34 in10.0 miNNW (340°)6.9 mphClear
12:55 AM53.6 °F37.4 °F54 %30.34 in10.0 miNorth (350°)9.2 mphClear
1:15 AM51.8 °F33.8 °F50 %30.34 in10.0 miNorth (360°)10.4 mphClear
1:35 AM51.8 °F30.2 °F44 %30.35 in10.0 miNorth (10°)9.2 mphClear
1:55 AM51.8 °F30.2 °F44 %30.34 in10.0 miNNE (20°)6.9 mphClear
2:15 AM50.0 °F28.4 °F43 %30.35 in10.0 miNorth (10°)8.1 mphClear
2:35 AM50.0 °F28.4 °F43 %30.35 in10.0 miNNE (20°)8.1 mphClear
2:55 AM50.0 °F28.4 °F43 %30.35 in10.0 miNNE (30°)5.8 mphClear
3:15 AM50.0 °F28.4 °F43 %30.35 in10.0 miNNE (20°)5.8 mphClear
3:35 AM48.2 °F30.2 °F50 %30.35 in10.0 miNorth (10°)6.9 mphClear
3:55 AM48.2 °F30.2 °F50 %30.35 in10.0 miNE (40°)5.8 mphClear
4:15 AM48.2 °F30.2 °F50 %30.35 in10.0 miNNE (30°)3.5 mphClear
4:35 AM48.2 °F30.2 °F50 %30.35 in10.0 miNNE (30°)3.5 mphClear
4:55 AM46.4 °F30.2 °F53 %30.36 in10.0 miNNE (30°)6.9 mphClear
5:15 AM46.4 °F30.2 °F53 %30.36 in10.0 miNorth (10°)9.2 mphClear
5:35 AM44.6 °F33.8 °F66 %30.37 in10.0 miNNE (20°)5.8 mphClear
5:55 AM44.6 °F32.0 °F61 %30.38 in10.0 miEast (80°)4.6 mphClear
6:15 AM44.6 °F33.8 °F66 %30.38 in10.0 miNNE (20°)5.8 mphClear
6:35 AM46.4 °F33.8 °F62 %30.38 in10.0 miCalmClear
6:55 AM46.4 °F33.8 °F62 %30.39 in10.0 miNorth (350°)3.5 mphClear
7:15 AM48.2 °F33.8 °F58 %30.40 in10.0 miCalmClear
7:35 AM48.2 °F35.6 °F62 %30.40 in10.0 miCalmClear
7:55 AM51.8 °F35.6 °F54 %30.40 in10.0 miCalmClear
8:15 AM53.6 °F35.6 °F51 %30.41 in10.0 miCalmClear
8:35 AM55.4 °F37.4 °F51 %30.41 in10.0 miCalmClear
8:55 AM57.2 °F37.4 °F48 %30.40 in9.0 miCalmClear
9:15 AM60.8 °F41.0 °F48 %30.40 in10.0 miNW (320°)3.5 mphClear
9:35 AM62.6 °F41.0 °F45 %30.39 in10.0 miNNE (20°)4.6 mphClear
9:55 AM64.4 °F41.0 °F42 %30.38 in10.0 miNorth (10°)5.8 mphClear
10:15 AM64.4 °F42.8 °F45 %30.37 in9.0 miNNE (20°)6.9 mphClear
10:35 AM66.2 °F42.8 °F43 %30.37 in10.0 miNNW (340°)4.6 mphClear
10:55 AM68.0 °F41.0 °F37 %30.37 in10.0 miCalmClear
11:15 AM69.8 °F42.8 °F38 %30.36 in9.0 miSW (220°)3.5 mphClear
11:35 AM71.6 °F41.0 °F33 %30.36 in10.0 miSE (140°)3.5 mphClear
11:55 AM71.6 °F42.8 °F35 %30.35 in10.0 miWNW (290°)5.8 mphClear
12:15 PM73.4 °F42.8 °F33 %30.35 in10.0 miCalmClear
12:35 PM73.4 °F30.2 °F20 %30.34 in10.0 miWSW (240°)5.8 mphClear
12:55 PM75.2 °F28.4 °F18 %30.34 in10.0 miWest (270°)4.6 mphClear
1:15 PM77.0 °F30.2 °F18 %30.33 in10.0 miWest (260°)8.1 mphClear
1:35 PM77.0 °F32.0 °F19 %30.33 in10.0 miCalmClear
1:55 PM78.8 °F33.8 °F20 %30.32 in10.0 miWSW (240°)9.2 mph18.4 mphClear
2:15 PM78.8 °F33.8 °F20 %30.31 in10.0 miWSW (240°)9.2 mphClear
2:35 PM80.6 °F32.0 °F17 %30.31 in10.0 miWSW (240°)10.4 mphClear
3:15 PM0.0 °F0.0 °F10.0 miNorth
3:35 PM0.0 °F0.0 °F10.0 miNorthClear
3:55 PM0.0 °F0.0 °F8.0 miNorthPartly Cloudy
4:15 PM0.0 °F0.0 °F10.0 miNorth
4:35 PM0.0 °F0.0 °F10.0 miNorthClear
4:55 PM0.0 °F0.0 °F10.0 miNorthClear
5:15 PM0.0 °F0.0 °F10.0 miNorthClear
5:35 PM0.0 °F0.0 °F10.0 miNorthClear
5:55 PM0.0 °F0.0 °F10.0 miNorthClear
6:15 PM0.0 °F0.0 °F30.26 in10.0 miNorthClear
6:35 PM0.0 °F0.0 °F10.0 miNorthClear
6:55 PM0.0 °F0.0 °F10.0 miNorthClear
7:15 PM78.8 °F26.6 °F15 %30.27 in10.0 miNorthClear
Hourly data recorded from KGUC, located miles away from Crested Butte, Colorado







STORIES FROM OUR PARTNERS